Regional Weather Roundup
Issued by NWS

Home | Current Version | Previous Version | Graphics & Text | Print | Product List | Glossary On
Versions: 1 2 3 4 5 6 7 8 9 10 11 12 13 14 15 16 17 18 19 20 21 22 23 24 25 26 27 28 29 30 31 32 33 34 35 36 37 38 39 40 41 42 43 44 45 46 47 48 49 50
000
ASUS43 KTOP 261208
RWRKS

WEATHER ROUNDUP FOR KANSAS
NATIONAL WEATHER SERVICE GOODLAND KS
700 AM CDT SAT JUL 26 2014

NOTE:  "FAIR" INDICATES FEW OR NO CLOUDS BELOW 12,000 FEET WITH NO
SIGNIFICANT WEATHER AND/OR OBSTRUCTIONS TO VISIBILITY.

KSZ001>006-013>018-027>032-041>047-261300-
NORTHWEST KANSAS

CITY           SKY/WX    TMP DP  RH WIND       PRES   REMARKS
GOODLAND       PTCLDY    69  62  78 SW3       29.97S
6HR MIN TEMP:  66; 6HR MAX TEMP:  73; 6HR PCP:  0.01;

HAYS           CLOUDY    75  66  73 CALM      29.85R
HILL CITY      MOCLDY    71  66  84 CALM      29.87R
6HR MIN TEMP:  71; 6HR MAX TEMP:  83; 6HR PCP:  0.01;

RUSSELL        CLOUDY    78  67  68 S12       29.82R
6HR MIN TEMP:  76; 6HR MAX TEMP:  83; 6HR PCP: TRACE;

$$

KSZ061>065-074>080-084>089-261300-
SOUTHWEST KANSAS

CITY           SKY/WX    TMP DP  RH WIND       PRES   REMARKS
DODGE CITY     CLOUDY    75  55  49 S12       29.89S
6HR MIN TEMP:  73; 6HR MAX TEMP:  88; 6HR PCP: TRACE;

ELKHART          N/A     76  58  53 W3          N/A
GARDEN CITY    MOCLDY    68  64  87 W5        29.91R
6HR MIN TEMP:  68; 6HR MAX TEMP:  83;

GREAT BEND     CLOUDY    73  63  68 S7        29.83S
LIBERAL        CLOUDY    79  52  38 W8        29.96R
PRATT          CLOUDY    77  55  47 S14       29.87S
$$

KSZ066>073-081>083-090>101-261300-
SOUTHEAST KANSAS

CITY           SKY/WX    TMP DP  RH WIND       PRES   REMARKS
CHANUTE        MOCLDY    75  71  87 S13       29.88S
6HR MIN TEMP:  75; 6HR MAX TEMP:  80;

COFFEYVILLE    PTCLDY    75  72  90 S10       29.89S
6HR MIN TEMP:  75; 6HR MAX TEMP:  80;

HUTCHINSON     CLOUDY    78  60  53 SW3       29.84R
6HR MIN TEMP:  77; 6HR MAX TEMP:  84;

MEDICINE LODGE   N/A     75  60  59 S7        29.86F
NEWTON         MOCLDY    75  61  60 S14       29.88F
PARSONS        PTCLDY    76  71  85 S7        29.90R
6HR MIN TEMP:  76; 6HR MAX TEMP:  80;

WICHITA INTL   MOCLDY    75  65  70 S12       29.85S
6HR MIN TEMP:  75; 6HR MAX TEMP:  83;

WICHITA JABRA  MOCLDY    78  65  63 S12       29.86R
6HR MIN TEMP:  77; 6HR MAX TEMP:  85;

WICHITA MCCONL MOCLDY    75  66  73 S10       29.87R
WINFIELD       MOCLDY    75  67  76 S9        29.90R
6HR MIN TEMP:  75; 6HR MAX TEMP:  82;

$$

KSZ007>012-019>026-033>040-048>060-102>105-261300-
NORTHEAST KANSAS

CITY           SKY/WX    TMP DP  RH WIND       PRES   REMARKS
CONCORDIA      CLOUDY    76  71  85 CALM      29.78S
6HR MIN TEMP:  75; 6HR MAX TEMP:  83;

EMPORIA        MOCLDY    79  65  62 S14       29.83R
6HR MIN TEMP:  79; 6HR MAX TEMP:  82;

LAWRENCE       CLOUDY    80  69  69 S7        29.81R
6HR MIN TEMP:  78; 6HR MAX TEMP:  85;

MANHATTAN      MOCLDY    83  62  49 SW14      29.77R
6HR MIN TEMP:  83; 6HR MAX TEMP:  86;

MARYSVILLE     CLOUDY    73  68  83 SE3       29.78R
OLATHE IND     CLOUDY    78  70  76 S16       29.83S
6HR MIN TEMP:  78; 6HR MAX TEMP:  81;

OLATHE EXE     MOCLDY    78  70  76 S12       29.82S
6HR MIN TEMP:  78; 6HR MAX TEMP:  80;

SALINA         CLOUDY    80  59  48 S13       29.81R
6HR MIN TEMP:  80; 6HR MAX TEMP:  87;

TOPEKA BILLARD CLOUDY    82  68  62 S6        29.79S
6HR MIN TEMP:  82; 6HR MAX TEMP:  86;

TOPEKA FORBES  CLOUDY    79  67  66 S9        29.80R
6HR MIN TEMP:  79; 6HR MAX TEMP:  84;

$$


USA.gov is the U.S. government's official web portal to all federal, state and local government web resources and services.